Home   Weather   Prince George   Past weeks

Flag for Canada Past Weather in Prince George, British Columbia, Canada — Yesterday and Last 2 Weeks

Now
25 °F

Overcast.


Feels Like: 13 °F
Forecast: 21 / 27 °F
Wind: 13 mph from North

Location: Prince George

Current Time: Jan 22, 2017 at 4:24:17 am

Latest Report: Jan 22, 2017 at 3:00 am


Visibility: 9 mi

Pressure: 29.74 "Hg (27.65 "Hg at 573m altitude)

Humidity: 74%

Dew Point: 18 °F

Location of Prince GeorgeLocation

Past Weather in Prince George — Graph

°F

Prince George Temperature Yesterday

Maximum temperature yesterday: 30 °F (at 11:00 am)
Minimum temperature yesterday: 27 °F (at 12:10 am)
Average temperature yesterday: 28 °F

High & Low Weather Summary for the Past Weeks

 TemperatureHumidityPressure
High43 °F (Jan 17, 4:00 pm)100% (Jan 16, 1:07 pm)30.42 "Hg (Jan 16, 1:07 pm)
Low-22 °F (Jan 10, 4:00 am)61% (Jan 9, 2:00 pm)29.09 "Hg (Jan 18, 7:00 am)
Average13 °F79%29.92 "Hg
* Reported Jan 7 3:00 am — Jan 22 3:00 am, Prince George, Weather by CustomWeather, © 2017

Note: Actual official high and low records may vary slightly from our data, if they occured in-between our weather recording intervals... More about our weather records

Advertising

Prince George Weather History for the Previous 24 Hours

Scroll right to see more
 ConditionsComfort  
Time TempWeatherWind HumidityBarometerVisibility
3:00 am
Sun, Jan 22
25 °FOvercast.13 mph74%29.74 "Hg9 mi
2:00 am25 °FOvercast.12 mph86%29.74 "Hg9 mi
1:00 am27 °FOvercast.13 mph80%29.73 "Hg9 mi
12:26 am25 °FOvercast.12 mph86%29.72 "Hg9 mi
12:00 am27 °FLight snow. Overcast.13 mph74%29.72 "Hg9 mi
11:50 pm
Sat, Jan 21
27 °FLight snow. Overcast.13 mph74%29.72 "Hg9 mi
11:26 pm27 °FMostly cloudy.13 mph74%29.71 "Hg9 mi
11:10 pm27 °FLight snow. Mostly cloudy.14 mph74%29.71 "Hg9 mi
10:00 pm27 °FMostly cloudy.10 mph74%29.69 "Hg9 mi
9:00 pm27 °FOvercast.10 mph74%29.68 "Hg9 mi
8:00 pm27 °FOvercast.14 mph74%29.65 "Hg9 mi
7:00 pm28 °FOvercast.13 mph69%29.63 "Hg9 mi
6:00 pm28 °FOvercast.15 mph74%29.61 "Hg9 mi
5:00 pm28 °FOvercast.15 mph74%29.60 "Hg9 mi
4:00 pm30 °FMostly cloudy.16 mph75%29.57 "Hg9 mi
3:00 pm30 °FOvercast.15 mph75%29.56 "Hg9 mi
2:00 pm30 °FOvercast.15 mph80%29.54 "Hg9 mi
1:00 pm30 °FOvercast.13 mph80%29.54 "Hg9 mi
12:00 pm30 °FOvercast.13 mph80%29.52 "Hg9 mi
11:00 am30 °FOvercast.15 mph80%29.51 "Hg9 mi
10:00 am28 °FOvercast.16 mph93%29.49 "Hg9 mi
9:00 am28 °FCloudy.15 mph93%29.47 "Hg9 mi
8:00 am28 °FMostly cloudy.15 mph93%29.45 "Hg9 mi
7:00 am28 °FMostly cloudy.9 mph100%29.44 "Hg9 mi
6:00 am28 °FOvercast.12 mph100%29.42 "Hg9 mi
5:00 am28 °FMostly cloudy.9 mph100%29.41 "Hg9 mi
4:00 am28 °FOvercast.10 mph100%29.39 "Hg9 mi
Weather by CustomWeather, © 2017

See weather overviewHow to use our weather pages